Location: Franzen
(48.6167°N, 15.3833°E)
Time: 18:29:16
(UTC+00:00)

Courier 1B - All Passes

Search period start: 27 July 2021 00:00
Search period end: 06 August 2021 00:00
Orbit: 962 x 1209 km, 28.3° (Epoch: 26 July)

Date Brightness Start Highest point End Pass type
(mag) Time Alt. Az. Time Alt. Az. Time Alt. Az.
27 Jul - 21:23:04 10° SSW 21:26:35 14° S 21:30:00 10° SSE visible
27 Jul - 23:17:30 10° SSW 23:19:12 11° SSW 23:20:54 10° S night (unlit)
28 Jul - 20:29:33 10° SSW 20:33:04 14° S 20:36:31 10° SE visible
28 Jul - 22:22:51 10° SW 22:25:46 13° S 22:28:37 10° SSE visible
29 Jul - 19:36:16 10° SSW 19:39:33 13° S 19:42:47 10° SE visible
29 Jul - 21:28:44 10° SW 21:32:18 14° S 21:35:46 10° SSE visible
30 Jul - 18:43:21 10° S 18:46:02 12° SSE 18:48:41 10° SE daylight
30 Jul - 20:34:52 10° SSW 20:38:47 15° S 20:42:36 10° SSE visible
30 Jul - 22:30:21 10° SSW 22:31:25 10° SSW 22:32:30 10° S visible
31 Jul - 17:51:19 10° S 17:52:31 10° SSE 17:53:42 10° SSE daylight
31 Jul - 19:41:13 10° SSW 19:45:15 15° S 19:49:12 10° SE visible
31 Jul - 21:35:07 10° SW 21:37:58 12° SSW 21:40:46 10° S visible
01 Aug - 18:47:47 10° SSW 18:51:42 15° S 18:55:34 10° SE daylight
01 Aug - 20:40:49 10° SW 20:44:28 14° S 20:48:03 10° SSE visible
02 Aug - 17:54:36 10° SSW 17:58:09 14° S 18:01:40 10° SE daylight
02 Aug - 19:46:50 10° SW 19:50:56 15° S 19:54:58 10° SSE visible
03 Aug - 17:01:49 10° S 17:04:36 12° SSE 17:07:23 10° SE daylight
03 Aug - 18:53:05 10° SW 18:57:23 16° S 19:01:37 10° SSE daylight
03 Aug - 20:47:37 10° SW 20:50:07 12° SSW 20:52:34 10° S visible
04 Aug - 16:10:18 10° SSE 16:11:05 10° SSE 16:11:51 10° SSE daylight
04 Aug - 17:59:33 10° SSW 18:03:49 16° S 18:08:02 10° SE daylight
04 Aug - 19:53:05 10° SW 19:56:35 14° SSW 20:00:04 10° SSE visible
05 Aug - 17:06:15 10° SSW 17:10:14 15° S 17:14:14 10° SE daylight
05 Aug - 18:59:00 10° SW 19:03:03 15° S 19:07:05 10° SSE visible
